Larkspur — C6BR6 — position and weather

sailwx.info

Track history (hours):
 
Tides and Currents Weather Stations Pressure Air Temp Water Temp Dewpoint Dewpoint Depression Visibility Wind Speed Wind Dir Waves Ship Positions

Larkspur

Operator: Transeuropa Lines

Last reported at 2018-Feb-24 19:50 UTC. Time now 2018-Feb-25 07:51 UTC.
Position N 09°11' W 079°52'.

Length 225 m; draft 11.9 m.

Type: Tanker. MMSI: 311000344.

Date/timePositionNaut miles runAvg speedWind from/ knotsBaromVisibWave heightAir tempDewpointWater temp
2018-Feb-24 19:50N 09°11' W 079°52'4 9.1
2018-Feb-24 19:22N 09°13' W 079°55'0 1.2
2018-Feb-24 18:58N 09°13' W 079°56'0 0.1
2018-Feb-24 18:28N 09°13' W 079°56'0 0.0
2018-Feb-24 17:58N 09°13' W 079°56'0 0.0
2018-Feb-24 17:28N 09°13' W 079°56'0 0.0
2018-Feb-24 16:58N 09°13' W 079°56'0 0.1
2018-Feb-24 16:28N 09°13' W 079°56'0 0.0
2018-Feb-24 15:58N 09°13' W 079°56'0 0.0
2018-Feb-24 15:28N 09°13' W 079°56'0 0.1
2018-Feb-24 14:58N 09°13' W 079°56'0 0.0
2018-Feb-24 14:28N 09°13' W 079°56'0 0.0
2018-Feb-24 13:58N 09°13' W 079°56'0 0.0
2018-Feb-24 13:28N 09°13' W 079°56'0 0.0
2018-Feb-24 11:28N 09°13' W 079°56'0 0.0
2018-Feb-24 08:04N 09°13' W 079°56'0 0.1
2018-Feb-24 07:55N 09°13' W 079°56'0 0.0
2018-Feb-24 07:28N 09°13' W 079°56'0 0.0
2018-Feb-24 06:58N 09°13' W 079°56'0 0.0
2018-Feb-24 04:34N 09°13' W 079°56'0 0.0
2018-Feb-24 04:25N 09°13' W 079°56'0 0.0
2018-Feb-24 03:58N 09°13' W 079°56'0 0.0
2018-Feb-24 03:25N 09°13' W 079°56'0 0.0
2018-Feb-24 02:58N 09°13' W 079°56'0 0.2
2018-Feb-24 01:58N 09°13' W 079°56'2 5.1
2018-Feb-24 01:30N 09°15' W 079°55'1 1.5
2018-Feb-24 00:44N 09°16' W 079°55'0 0.8
2018-Feb-24 00:28N 09°16' W 079°55'0 0.2
2018-Feb-24 00:00N 09°16' W 079°55'0 0.3
2018-Feb-23 23:29N 09°17' W 079°55'1 1.8
2018-Feb-23 23:00N 09°17' W 079°55'2 4.8
2018-Feb-23 22:30N 09°20' W 079°55'3 5.6
2018-Feb-23 22:00N 09°23' W 079°56'0 0.2
2018-Feb-23 21:30N 09°23' W 079°56'0 0.0
2018-Feb-23 21:00N 09°23' W 079°56'0 0.0
2018-Feb-23 20:30N 09°23' W 079°56'0 0.0
2018-Feb-23 19:57N 09°23' W 079°56'0 0.0
2018-Feb-23 19:30N 09°23' W 079°56'0 0.1
2018-Feb-23 19:00N 09°23' W 079°56'0 0.0
2018-Feb-23 18:30N 09°23' W 079°56'0 0.0
2018-Feb-23 18:00N 09°23' W 079°56'0 0.0
2018-Feb-23 17:30N 09°23' W 079°56'0 0.0
2018-Feb-23 17:00N 09°23' W 079°56'0 0.0
2018-Feb-23 16:30N 09°23' W 079°56'0 0.1
2018-Feb-23 16:00N 09°23' W 079°56'0 0.2
2018-Feb-23 15:30N 09°23' W 079°56'0 0.4
2018-Feb-23 15:00N 09°23' W 079°56'2 3.6
2018-Feb-23 14:30N 09°24' W 079°55'3 5.2
2018-Feb-23 14:00N 09°27' W 079°54'1 2.0
2018-Feb-23 13:30N 09°28' W 079°53'1 1.2
2018-Feb-23 12:59N 09°28' W 079°54'2 4.9
2018-Feb-23 12:30N 09°30' W 079°54'  
2018-Feb-19 07:34N 26°58' W 093°45'515.1
2018-Feb-19 07:16N 27°02' W 093°48'415.1
2018-Feb-19 07:00N 27°05' W 093°50'11514.1
2018-Feb-18 22:48N 28°56' W 094°25'512.7
2018-Feb-18 22:24N 29°01' W 094°25'1411.7
2018-Feb-18 21:15N 29°13' W 094°32'1310.4
2018-Feb-18 19:59N 29°21' W 094°44'5 9.4
2018-Feb-18 19:25N 29°24' W 094°49'510.9
2018-Feb-18 18:59N 29°28' W 094°51'510.7
2018-Feb-18 18:30N 29°33' W 094°54'5 9.6
2018-Feb-18 18:00N 29°37' W 094°57'4 8.7
2018-Feb-18 17:30N 29°41' W 094°59'3 5.9
2018-Feb-18 17:00N 29°43' W 095°01'3 5.3
2018-Feb-18 16:29N 29°45' W 095°04'2 4.6
2018-Feb-18 15:59N 29°45' W 095°06'  
2018-Feb-14 23:42N 29°44' W 095°08'0 0.1
2018-Feb-14 23:30N 29°44' W 095°08'1 2.3
2018-Feb-14 22:59N 29°45' W 095°06'2 5.0
2018-Feb-14 22:30N 29°44' W 095°04'3 6.9
2018-Feb-14 22:00N 29°42' W 095°01'1 2.2
2018-Feb-14 21:30N 29°41' W 095°00'  
Track history (hours):
 
Tides and Currents Weather Stations Pressure Air Temp Water Temp Dewpoint Dewpoint Depression Visibility Wind Speed Wind Dir Waves Ship Positions

Larkspur

Operator: Transeuropa Lines

Last reported at 2018-Feb-24 19:50 UTC. Time now 2018-Feb-25 07:51 UTC.
Position N 09°11' W 079°52'.

Length 225 m; draft 11.9 m.

Type: Tanker. MMSI: 311000344.

Date/timePositionNaut miles runAvg speedWind from/ knotsBaromVisibWave heightAir tempDewpointWater temp
2018-Feb-24 19:50N 09°11' W 079°52'4 9.1
2018-Feb-24 19:22N 09°13' W 079°55'0 1.2
2018-Feb-24 18:58N 09°13' W 079°56'0 0.1
2018-Feb-24 18:28N 09°13' W 079°56'0 0.0
2018-Feb-24 17:58N 09°13' W 079°56'0 0.0
2018-Feb-24 17:28N 09°13' W 079°56'0 0.0
2018-Feb-24 16:58N 09°13' W 079°56'0 0.1
2018-Feb-24 16:28N 09°13' W 079°56'0 0.0
2018-Feb-24 15:58N 09°13' W 079°56'0 0.0
2018-Feb-24 15:28N 09°13' W 079°56'0 0.1
2018-Feb-24 14:58N 09°13' W 079°56'0 0.0
2018-Feb-24 14:28N 09°13' W 079°56'0 0.0
2018-Feb-24 13:58N 09°13' W 079°56'0 0.0
2018-Feb-24 13:28N 09°13' W 079°56'0 0.0
2018-Feb-24 11:28N 09°13' W 079°56'0 0.0
2018-Feb-24 08:04N 09°13' W 079°56'0 0.1
2018-Feb-24 07:55N 09°13' W 079°56'0 0.0
2018-Feb-24 07:28N 09°13' W 079°56'0 0.0
2018-Feb-24 06:58N 09°13' W 079°56'0 0.0
2018-Feb-24 04:34N 09°13' W 079°56'0 0.0
2018-Feb-24 04:25N 09°13' W 079°56'0 0.0
2018-Feb-24 03:58N 09°13' W 079°56'0 0.0
2018-Feb-24 03:25N 09°13' W 079°56'0 0.0
2018-Feb-24 02:58N 09°13' W 079°56'0 0.2
2018-Feb-24 01:58N 09°13' W 079°56'2 5.1
2018-Feb-24 01:30N 09°15' W 079°55'1 1.5
2018-Feb-24 00:44N 09°16' W 079°55'0 0.8
2018-Feb-24 00:28N 09°16' W 079°55'0 0.2
2018-Feb-24 00:00N 09°16' W 079°55'0 0.3
2018-Feb-23 23:29N 09°17' W 079°55'1 1.8
2018-Feb-23 23:00N 09°17' W 079°55'2 4.8
2018-Feb-23 22:30N 09°20' W 079°55'3 5.6
2018-Feb-23 22:00N 09°23' W 079°56'0 0.2
2018-Feb-23 21:30N 09°23' W 079°56'0 0.0
2018-Feb-23 21:00N 09°23' W 079°56'0 0.0
2018-Feb-23 20:30N 09°23' W 079°56'0 0.0
2018-Feb-23 19:57N 09°23' W 079°56'0 0.0
2018-Feb-23 19:30N 09°23' W 079°56'0 0.1
2018-Feb-23 19:00N 09°23' W 079°56'0 0.0
2018-Feb-23 18:30N 09°23' W 079°56'0 0.0
2018-Feb-23 18:00N 09°23' W 079°56'0 0.0
2018-Feb-23 17:30N 09°23' W 079°56'0 0.0
2018-Feb-23 17:00N 09°23' W 079°56'0 0.0
2018-Feb-23 16:30N 09°23' W 079°56'0 0.1
2018-Feb-23 16:00N 09°23' W 079°56'0 0.2
2018-Feb-23 15:30N 09°23' W 079°56'0 0.4
2018-Feb-23 15:00N 09°23' W 079°56'2 3.6
2018-Feb-23 14:30N 09°24' W 079°55'3 5.2
2018-Feb-23 14:00N 09°27' W 079°54'1 2.0
2018-Feb-23 13:30N 09°28' W 079°53'1 1.2
2018-Feb-23 12:59N 09°28' W 079°54'2 4.9
2018-Feb-23 12:30N 09°30' W 079°54'  
2018-Feb-19 07:34N 26°58' W 093°45'515.1
2018-Feb-19 07:16N 27°02' W 093°48'415.1
2018-Feb-19 07:00N 27°05' W 093°50'11514.1
2018-Feb-18 22:48N 28°56' W 094°25'512.7
2018-Feb-18 22:24N 29°01' W 094°25'1411.7
2018-Feb-18 21:15N 29°13' W 094°32'1310.4
2018-Feb-18 19:59N 29°21' W 094°44'5 9.4
2018-Feb-18 19:25N 29°24' W 094°49'510.9
2018-Feb-18 18:59N 29°28' W 094°51'510.7
2018-Feb-18 18:30N 29°33' W 094°54'5 9.6
2018-Feb-18 18:00N 29°37' W 094°57'4 8.7
2018-Feb-18 17:30N 29°41' W 094°59'3 5.9
2018-Feb-18 17:00N 29°43' W 095°01'3 5.3
2018-Feb-18 16:29N 29°45' W 095°04'2 4.6
2018-Feb-18 15:59N 29°45' W 095°06'  
2018-Feb-14 23:42N 29°44' W 095°08'0 0.1
2018-Feb-14 23:30N 29°44' W 095°08'1 2.3
2018-Feb-14 22:59N 29°45' W 095°06'2 5.0
2018-Feb-14 22:30N 29°44' W 095°04'3 6.9
2018-Feb-14 22:00N 29°42' W 095°01'1 2.2
2018-Feb-14 21:30N 29°41' W 095°00'  

Dump ship's entire track history